SAUDICOMSAT 4

Last updated on Tue Sep 22 2026 00:03:30 GMT+0000 (Coordinated Universal Time)

1 31127U 07012L 26264.14519437 .00000370 00000+0 77730-4 0 9995 2 31127 98.4111 238.7322 0062503 319.6462 40.0111 14.64599726 35338
UTC large
Height (km)
Speed (km/s)
/
Latitude / Longitude
Inclination (degrees)
Orbital Period (minutes)
Azimuth
Elevation
Range (km)
Doppler Factor

Next 0 passes for location: London (51.5072 / 0.1276)

No passes found over London.
SAUDICOMSAT 4